Total_Precipitation_Accumulation
0.00 0.00 0.00 0.00 0.00 0.04 0.05 0.03 0.02 0.01 0.04 0.14 0.18 0.29 0.20 0.24 0.39 1.20 1.04 1.68 2.34 3.79 3.91 2.91 1.21 0.63 0.14 0.06 0.12 0.32 0.48 0.54 0.70 0.88 0.81 0.84 0.76 0.74 0.69 0.89 1.28 1.63 1.18 0.51 0.51 0.23 0.22 0.25 0.10
0.00 0.00 0.00 0.00 0.00 0.12 0.27 0.03 0.01 0.05 0.20 0.33 0.43 0.51 0.37 0.91 0.66 0.82 0.93 0.97 1.18 2.19 1.45 2.52 2.69 1.35 0.62 0.29 0.25 0.39 0.71 0.54 0.66 0.79 0.79 0.86 0.90 0.99 1.11 1.35 1.45 1.35 1.13 0.57 0.45 0.32 0.21 0.16 0.06
0.00 0.00 0.00 0.00 0.00 0.01 0.06 0.03 0.03 0.20 0.20 0.17 0.31 0.44 0.55 1.39 0.97 0.98 1.09 1.30 1.74 1.79 1.65 1.17 1.75 1.98 1.48 0.72 0.48 0.49 0.61 0.69 0.70 0.98 0.81 0.80 0.91 1.03 1.18 1.16 1.44 1.45 1.19 0.96 0.82 0.63 0.24 0.05 0.01
0.00 0.00 0.00 0.00 0.00 0.00 0.04 0.05 0.04 0.15 0.11 0.10 0.11 0.39 0.72 1.16 1.03 1.16 1.20 1.92 2.70 2.55 2.35 1.83 1.70 1.55 1.90 1.59 1.25 0.86 0.53 0.67 0.61 1.03 1.06 1.21 1.47 1.10 1.07 0.85 1.67 1.96 1.32 1.09 0.95 0.95 0.33 0.02 0.02
0.00 0.00 0.00 0.00 0.00 0.00 0.00 0.02 0.06 0.18 0.54 0.42 0.14 0.58 1.13 0.84 0.80 1.32 1.87 2.47 3.12 3.74 4.13 2.65 3.62 3.00 2.72 2.20 2.01 2.01 1.48 0.83 0.84 0.86 1.17 1.59 1.72 1.71 1.75 1.50 2.11 2.58 1.98 1.34 1.05 0.84 0.54 0.09 0.06
0.00 0.00 0.00 0.00 0.00 0.00 0.01 0.08 0.15 0.25 0.33 0.43 0.26 0.64 1.16 1.04 1.09 1.54 2.00 3.03 4.34 3.54 4.19 4.07 5.17 6.90 4.99 3.46 3.05 3.30 3.00 2.53 1.71 1.55 1.66 2.53 2.87 2.59 2.49 2.20 2.42 2.46 2.34 1.65 1.02 0.78 0.64 0.35 0.17
0.00 0.00 0.00 0.00 0.00 0.01 0.11 0.16 0.19 0.19 0.11 0.31 0.56 1.01 1.23 0.89 1.42 1.75 2.48 3.98 5.63 6.50 6.76 6.24 6.19 7.27 6.72 5.93 4.72 4.30 4.43 5.79 5.61 4.04 3.43 3.66 3.05 2.31 2.00 1.97 1.93 1.78 1.40 1.46 0.94 0.70 0.64 0.46 0.45
0.00 0.00 0.00 0.00 0.00 0.07 0.20 0.24 0.19 0.13 0.21 0.56 0.38 1.02 0.84 1.21 1.37 1.41 1.88 2.92 4.44 7.50 8.61 8.16 8.08 7.83 5.31 4.92 4.51 3.86 4.76 3.97 5.58 5.68 4.95 3.21 2.61 2.24 1.88 2.18 1.77 1.46 1.17 0.92 0.52 0.71 0.65 0.57 0.45
0.00 0.00 0.00 0.00 0.01 0.15 0.23 0.09 0.30 0.28 0.25 0.39 0.40 0.69 0.85 1.00 0.89 1.13 1.26 1.71 2.51 4.03 4.59 5.04 6.29 6.79 6.28 4.71 3.69 3.01 3.51 5.37 3.29 3.71 4.07 3.60 2.18 2.01 2.02 2.50 2.37 1.61 1.26 0.88 0.67 0.52 0.39 0.48 0.54
0.00 0.00 0.00 0.00 0.06 0.24 0.13 0.06 0.39 0.31 0.44 0.71 0.43 0.74 0.75 0.56 0.71 0.87 0.96 0.95 1.22 1.70 2.95 3.35 3.02 2.39 2.49 2.57 2.65 2.54 3.17 4.66 4.22 3.12 2.54 1.97 1.98 1.54 1.83 2.49 2.53 2.21 1.98 1.58 1.10 0.72 0.74 0.73 0.33
0.00 0.00 0.00 0.02 0.11 0.04 0.03 0.08 0.21 0.42 0.51 0.57 1.15 0.48 0.42 0.54 0.62 0.76 1.04 0.63 0.62 0.94 1.57 1.66 1.41 1.14 0.93 0.88 1.28 1.63 3.09 3.87 4.41 3.41 3.00 2.10 1.93 2.00 1.73 1.97 2.45 2.23 2.38 1.59 1.20 0.89 0.91 0.89 0.80
0.00 0.00 0.00 0.01 0.01 0.01 0.00 0.04 0.29 0.59 0.81 0.31 0.35 0.43 0.47 0.75 0.65 0.31 0.28 0.32 0.46 0.61 0.88 0.96 0.70 0.57 0.52 0.52 0.89 1.12 1.63 2.92 2.88 3.37 3.31 2.63 1.77 2.02 2.26 2.17 2.28 2.11 2.24 1.95 1.43 0.95 1.03 1.10 1.07
0.00 0.00 0.00 0.01 0.04 0.03 0.00 0.07 0.22 0.73 0.42 0.15 0.19 0.40 0.55 0.56 0.17 0.10 0.17 0.20 0.29 0.49 0.54 0.86 0.79 0.56 0.43 0.40 0.69 1.13 1.24 2.40 1.93 3.25 2.78 2.58 1.74 2.01 2.39 2.72 2.22 2.05 2.22 2.26 1.93 1.57 1.40 1.39 1.51
0.00 0.00 0.00 0.00 0.01 0.01 0.02 0.07 0.16 0.57 0.42 0.20 0.14 0.33 0.56 0.59 0.12 0.09 0.11 0.15 0.17 0.34 0.49 0.60 0.56 0.76 0.74 0.85 1.09 1.21 1.65 2.30 2.00 2.78 2.21 2.65 1.47 1.85 2.05 2.28 2.16 2.15 2.50 2.59 2.29 1.94 1.83 1.69 2.27
0.00 0.00 0.02 0.03 0.01 0.00 0.05 0.20 0.36 0.17 0.20 0.17 0.11 0.08 0.36 0.88 0.26 0.06 0.14 0.12 0.07 0.24 0.45 0.67 0.74 0.52 0.62 0.97 1.39 1.58 1.83 2.45 2.46 2.59 2.26 2.62 1.86 1.76 2.39 2.91 2.34 2.23 2.37 2.74 3.44 2.87 2.59 2.85 2.89
0.00 0.00 0.01 0.04 0.03 0.02 0.15 0.48 0.07 0.04 0.08 0.11 0.10 0.08 0.08 0.10 0.03 0.02 0.08 0.05 0.02 0.08 0.31 0.73 0.92 0.89 0.79 0.70 0.91 1.38 1.47 1.89 2.35 2.35 2.13 2.80 3.00 2.39 2.76 3.21 2.75 2.15 2.22 2.72 4.03 4.41 2.91 2.74 2.54
0.00 0.00 0.00 0.01 0.01 0.01 0.05 0.34 0.14 0.06 0.11 0.09 0.06 0.06 0.04 0.03 0.01 0.01 0.05 0.04 0.07 0.10 0.23 0.65 1.05 1.26 1.28 1.18 1.42 1.23 0.78 1.11 2.02 2.28 2.05 2.42 2.90 2.66 2.81 3.17 3.15 2.46 2.23 2.66 3.28 4.22 2.94 1.50 1.42
0.00 0.00 0.00 0.02 0.02 0.01 0.01 0.03 0.26 0.14 0.06 0.28 0.09 0.05 0.06 0.01 0.01 0.04 0.10 0.11 0.14 0.13 0.18 0.62 1.29 1.50 1.42 1.38 1.07 0.95 0.75 0.93 1.59 2.18 2.53 2.30 2.49 2.87 2.98 3.39 3.09 3.02 2.23 2.10 2.39 3.14 3.13 2.06 1.85
0.00 0.00 0.00 0.00 0.01 0.00 0.00 0.01 0.02 0.02 0.05 0.04 0.06 0.08 0.03 0.01 0.03 0.06 0.16 0.16 0.13 0.10 0.22 0.56 1.09 1.55 0.99 0.78 0.58 0.68 0.71 0.89 0.90 1.74 2.34 2.62 2.43 2.74 3.22 3.64 3.40 3.29 2.96 2.31 2.71 3.10 3.28 2.81 2.47
0.00 0.00 0.00 0.00 0.00 0.00 0.00 0.00 0.00 0.05 0.02 0.01 0.01 0.12 0.04 0.02 0.05 0.03 0.07 0.06 0.08 0.15 0.47 0.58 0.70 0.93 0.90 0.72 0.66 0.57 0.62 0.89 0.87 1.17 1.68 2.19 2.59 2.55 2.89 2.85 2.84 2.88 3.23 3.11 2.77 3.49 3.33 3.34 2.69
0.00 0.00 0.00 0.00 0.00 0.00 0.00 0.04 0.02 0.02 0.05 0.08 0.04 0.03 0.01 0.01 0.02 0.03 0.03 0.04 0.04 0.05 0.31 0.39 0.55 0.74 0.76 0.79 1.18 1.26 1.32 1.33 1.30 0.98 1.00 1.35 1.97 2.40 2.43 2.07 2.68 3.17 3.19 2.95 3.11 3.72 3.58 3.55 3.90
0.00 0.00 0.00 0.00 0.00 0.01 0.01 0.20 0.10 0.08 0.06 0.02 0.08 0.06 0.03 0.03 0.02 0.00 0.00 0.01 0.02 0.13 0.57 0.51 0.55 0.65 0.81 0.88 1.03 1.27 1.20 0.84 0.74 0.82 0.85 1.07 1.31 1.80 2.37 2.29 2.03 2.73 3.20 2.97 2.92 3.52 3.97 3.94 4.12
0.02 0.00 0.00 0.00 0.00 0.09 0.06 0.12 0.18 0.09 0.06 0.02 0.09 0.15 0.12 0.05 0.03 0.02 0.02 0.02 0.04 0.18 0.59 0.70 0.77 0.92 0.93 1.00 1.10 1.18 1.20 1.01 0.78 0.84 1.00 1.12 1.25 1.26 1.85 2.09 2.37 2.38 2.85 3.28 3.27 3.34 3.64 3.43 3.21
0.00 0.02 0.00 0.00 0.06 0.30 0.07 0.13 0.36 0.29 0.23 0.12 0.17 0.17 0.16 0.09 0.10 0.07 0.09 0.12 0.11 0.22 0.56 0.88 1.02 0.92 0.98 1.12 1.23 1.09 1.01 1.18 1.24 1.12 1.11 1.21 1.27 1.43 1.57 2.19 2.68 2.85 2.88 3.09 3.30 3.17 3.31 3.32 3.56
0.03 0.15 0.29 0.26 0.31 0.39 0.28 0.34 0.76 0.37 0.32 0.45 0.39 0.16 0.09 0.07 0.15 0.41 0.28 0.21 0.22 0.24 0.41 0.82 1.31 1.38 1.18 1.30 1.42 1.46 1.50 1.56 1.53 1.43 1.40 1.45 1.41 1.65 1.89 2.03 2.39 3.05 3.21 3.47 3.73 3.70 3.45 3.32 3.54
0.08 0.30 0.78 0.91 0.55 0.54 0.53 0.84 0.96 0.69 0.52 0.51 0.35 0.26 0.22 0.26 0.31 0.48 0.83 0.36 0.31 0.49 0.48 0.78 1.61 2.19 2.19 1.89 1.80 1.88 1.65 1.81 1.86 1.71 1.65 1.66 1.62 1.68 2.15 2.69 2.97 3.13 3.65 3.65 3.57 3.54 3.21 2.91 2.83
0.31 0.33 0.29 1.10 0.63 0.53 0.63 0.82 1.12 1.12 0.84 1.25 1.36 0.83 0.70 0.61 0.60 0.60 0.58 0.79 0.58 0.58 0.75 1.07 1.39 1.63 2.31 1.81 1.43 1.61 1.80 1.99 2.21 2.04 1.68 1.49 1.40 1.43 1.64 1.70 2.06 2.06 2.25 2.51 2.41 2.44 2.49 2.57 2.41
0.24 0.30 0.76 1.50 1.55 0.96 0.73 0.61 0.97 0.87 0.85 0.86 0.75 0.59 0.43 0.33 0.28 0.37 0.46 0.89 1.70 1.61 1.32 1.73 2.01 1.74 1.78 1.85 1.69 1.58 1.73 1.74 1.72 1.60 1.47 1.21 1.20 1.26 1.10 1.09 1.11 1.43 1.60 1.88 2.21 2.06 2.31 2.42 2.04
0.27 0.50 0.75 1.00 0.90 1.21 1.07 1.36 1.56 1.12 1.16 0.83 0.33 0.26 0.25 0.26 0.28 0.26 0.24 0.36 0.59 1.81 2.27 1.94 2.34 2.67 2.64 2.31 2.16 2.04 1.89 2.31 2.45 2.16 1.79 1.83 1.51 1.41 1.36 1.14 1.15 1.17 1.50 1.76 2.02 2.22 2.29 2.46 2.38
0.37 0.56 0.86 1.51 0.97 0.83 1.21 1.77 1.32 1.27 0.76 0.90 0.58 0.38 0.19 0.22 0.33 0.28 0.25 0.30 0.30 0.50 1.17 2.03 2.32 2.33 2.42 2.43 2.98 3.43 3.05 2.65 2.84 3.09 2.86 2.79 2.84 2.39 1.89 1.89 1.76 1.58 1.72 1.91 1.84 1.77 2.35 2.89 3.07